TimeEDT,TemperatureF,Dew PointF,Humidity,Sea Level PressureIn,VisibilityMPH,Wind Direction,Wind SpeedMPH,Gust SpeedMPH,PrecipitationIn,Events,Conditions,WindDirDegrees,DateUTC
12:54 AM,28.9,23.0,78,29.88,10.0,SE,4.6,-,N/A,,Clear,130,2014-03-18 04:54:00
1:54 AM,27.0,23.0,85,29.90,10.0,ESE,3.5,-,N/A,,Clear,120,2014-03-18 05:54:00
2:54 AM,28.0,24.1,85,29.90,10.0,East,3.5,-,N/A,,Clear,80,2014-03-18 06:54:00
3:54 AM,28.0,23.0,81,29.91,10.0,ENE,3.5,-,N/A,,Clear,70,2014-03-18 07:54:00
4:54 AM,26.1,23.0,88,29.91,9.0,East,4.6,-,N/A,,Clear,80,2014-03-18 08:54:00
5:54 AM,24.1,21.9,91,29.89,9.0,East,6.9,-,N/A,,Clear,100,2014-03-18 09:54:00
6:54 AM,26.1,23.0,88,29.91,9.0,ESE,4.6,-,N/A,,Clear,110,2014-03-18 10:54:00
7:54 AM,26.1,21.0,81,29.91,8.0,East,6.9,-,N/A,,Clear,100,2014-03-18 11:54:00
8:54 AM,30.0,25.0,82,29.91,8.0,ESE,4.6,-,N/A,,Clear,120,2014-03-18 12:54:00
9:54 AM,36.0,28.9,76,29.91,10.0,SSE,8.1,-,N/A,,Clear,150,2014-03-18 13:54:00
10:54 AM,39.0,30.9,73,29.93,10.0,SSE,10.4,-,N/A,,Clear,160,2014-03-18 14:54:00
11:54 AM,43.0,32.0,65,29.94,10.0,SSE,12.7,-,N/A,,Clear,160,2014-03-18 15:54:00
12:54 PM,43.0,32.0,65,29.93,10.0,SE,13.8,-,N/A,,Clear,140,2014-03-18 16:54:00
1:54 PM,44.1,33.1,65,29.92,10.0,SE,10.4,-,N/A,,Clear,140,2014-03-18 17:54:00
2:54 PM,48.9,34.0,56,29.89,10.0,SE,15.0,20.7,N/A,,Clear,140,2014-03-18 18:54:00
3:54 PM,46.9,34.0,61,29.86,10.0,SE,13.8,23.0,N/A,,Clear,130,2014-03-18 19:54:00
4:54 PM,50.0,35.1,57,29.84,10.0,SE,12.7,-,N/A,,Clear,140,2014-03-18 20:54:00
5:54 PM,50.0,35.1,57,29.80,10.0,SE,16.1,-,N/A,,Clear,140,2014-03-18 21:54:00
6:54 PM,51.1,37.0,59,29.77,10.0,SE,11.5,-,N/A,,Clear,130,2014-03-18 22:54:00
7:54 PM,48.0,37.0,66,29.74,10.0,SE,12.7,-,N/A,,Clear,140,2014-03-18 23:54:00
8:54 PM,46.9,37.0,68,29.72,10.0,SSE,12.7,25.3,N/A,,Clear,150,2014-03-19 00:54:00
9:46 PM,45.0,37.0,74,29.74,10.0,SSE,11.5,-,N/A,,Mostly Cloudy,160,2014-03-19 01:46:00
9:54 PM,45.0,37.0,74,29.75,10.0,SSE,6.9,-,N/A,,Mostly Cloudy,150,2014-03-19 01:54:00
10:54 PM,45.0,37.9,76,29.78,10.0,SSE,6.9,-,N/A,,Overcast,160,2014-03-19 02:54:00
11:04 PM,45.0,37.9,76,29.77,10.0,SSE,6.9,-,N/A,,Overcast,160,2014-03-19 03:04:00
11:43 PM,45.0,37.9,76,29.78,10.0,SSE,5.8,-,N/A,,Overcast,160,2014-03-19 03:43:00
11:54 PM,45.0,37.9,76,29.78,10.0,SSE,4.6,-,N/A,,Overcast,150,2014-03-19 03:54:00